User: anonymous   Login
Location: Unspecified
(0.0000°N, 0.0000°E)
Time: 19:10:28
(UTC+00:00)
Language:

STARLINK-32376 - Orbit

View from above orbital plane
View from above orbital plane
View from above satellite
View from above satellite

Ground track
Ground track

The orbit is defined by the following mean orbital elements,

1 61707U          26145.18909219 +.00000000 +00000-0 +16370-4 0 00002
2 61707  53.1603 105.6817 0001260  96.3539 263.7605 15.30191506    03
Epoch (UTC): 25 May 2026 04:32:17
Eccentricity: 0.0001260
inclination: 53.1603°
perigee height: 474 km
apogee height: 476 km
right ascension of ascending node: 105.6817°
argument of perigee: 96.3539°
revolutions per day: 15.30191506
mean anomaly at epoch: 263.7605°

The dashed part of the orbit path shows where the satellite is in the earth's shadow,  

DLR